sat.trackr.live / text

‹ back to catalog

ONEWEB-0129

NORAD 47275 · 2020-100T

PAYLOAD ACTIVE UNKNOWN

§ Identity

Operator
Country
UK
Launch date
2020-12-18
Launch site
VOSTO
Launch vehicle
Mass (kg)
RCS (m²)

Purposes: comms

External: N2YO · Heavens-Above · Gunter

§ Orbital elements

Epoch: 2026-09-08T17:14:55.382784Z

Period
109.72 min
Inclination
87.8999°
Eccentricity
0.0000981
Mean motion
13.12441892 rev/d
Perigee alt
1,213.0 km
Apogee alt
1,214.5 km
Semi-major
7,591.9 km
B*
-1.1632e-3
RAAN
334.0746°
Arg perigee
77.4544°
Mean anomaly
282.6694°
Rev number
27,563

§ Raw data

ONEWEB-01291 47275U 20100T   26251.71869656 -.00000406  00000+0 -11632-2 0  99982 47275  87.8999 334.0746 0000981  77.4544 282.6694 13.12441892275638

JSON: /api/v1/satellites/47275 · /tle

For live sub-satellite position, see the globe view (requires WebGL).

§ Visibility from observer

Set your observer location to see the next 7 days of passes ≥ 10°. The values pass through the URL so the page stays shareable.

No JS? Fill the form by hand. The geolocation button needs JavaScript.